Regional Weather Roundup
Issued by NWS

Home | Current Version | Previous Version | Text Only | Print | Product List | Glossary On
Versions: 1 2 3 4 5 6 7 8 9 10 11 12 13 14 15 16 17 18 19 20 21 22 23 24 25 26 27 28
000
ASUS44 KBMX 220910
RWRAL

ALABAMA REGIONAL WEATHER ROUNDUP
NATIONAL WEATHER SERVICE BIRMINGHAM AL
400 AM CDT SAT JUL 22 2017

NOTE: "FAIR" INDICATES FEW OR NO CLOUDS BELOW 12,000 FEET
WITH NO SIGNIFICANT WEATHER AND/OR OBSTRUCTIONS TO VISIBILITY.

THE REMARK "TC" DENOTES TEMPERATURE IN DEGREES CELSIUS.

ALZ001>011-014-016>018-020-221000-
NORTH ALABAMA

CITY           SKY/WX    TMP DP  RH WIND       PRES   REMARKS
MUSCLE SHOALS  CLEAR     75  72  90 CALM      29.97S
HUNTSVILLE     CLEAR     77  77 100 S3        29.97S
DECATUR        CLEAR     74  73  97 CALM      29.97S
HALEYVILLE     NOT AVBL
GADSDEN        CLEAR     75  74  96 CALM      29.98S
$$

ALZ012-013-022-023-030>036-040>044-221000-
WEST CENTRAL ALABAMA

CITY           SKY/WX    TMP DP  RH WIND       PRES   REMARKS
TUSCALOOSA     CLEAR     74  74 100 SW3       29.98R
DEMOPOLIS        N/A    N/A N/A N/A CALM      29.98S FOG
$$

ALZ015-024>026-033>036-041>044-221000-
CENTRAL ALABAMA

CITY           SKY/WX    TMP DP  RH WIND       PRES   REMARKS
BIRMINGHAM     CLEAR     78  70  76 CALM      30.01S
MONTGOMERY     PTCLDY    74  69  85 CALM      29.99R
SHELBY CO ARPT CLEAR     74  73  97 CALM      29.99R
MAXWELL AFB    PTCLDY    73  73  99 CALM      29.98R
GREENVILLE     FAIR      72  69  90 CALM      29.98S FOG
SELMA          FAIR      72  70  94 CALM      29.99R
PRATTVILLE     FAIR      71  71 100 CALM      29.98S FOG
BESSEMER       FAIR      72  71  97 CALM      30.00S
TALLADEGA      FAIR      73  72  95 CALM      30.00R
PELL CITY        N/A     72  72 100 CALM      29.99S
MARION         FAIR      73  73 100 MISG      29.98R FOG
SYLACAUGA      FAIR      73  73 100 CALM      30.00S
$$

ALZ019-021-028-029-037-038-045>048-221000-
EAST CENTRAL ALABAMA

CITY           SKY/WX    TMP DP  RH WIND       PRES   REMARKS
ANNISTON       CLEAR     74  72  93 W3        29.99S
ALEXANDER CITY CLEAR     71  70  96 CALM      30.00R
AUBURN         CLEAR     72  71  97 SW5       30.02R
$$

ALZ051>064-221000-
SOUTHWEST ALABAMA

CITY           SKY/WX    TMP DP  RH WIND       PRES   REMARKS
MOBILE         CLEAR     75  72  90 N3        29.99S
BROOKLEY FIELD PTCLDY    78  77  96 NW5       29.98F
EVERGREEN      CLEAR     74  72  93 CALM      29.99S
$$

ALZ049-050-065>069-221000-
SOUTHEAST ALABAMA

CITY           SKY/WX    TMP DP  RH WIND       PRES   REMARKS
DOTHAN         CLEAR     73  73 100 CALM      30.03R
OZARK          CLEAR     73  71  96 S3        29.99S
TROY           CLEAR     70  70 100 SW3       30.00R
EUFAULA        FAIR      73  71  93 CALM      29.99R
$$




USA.gov is the U.S. government's official web portal to all federal, state and local government web resources and services.